User: anonymous   Login
Location: Unspecified
(0.0000°N, 0.0000°E)
Time: 05:10:57
(UTC+02:00)
Language:

Gurwin Techsat 1B - Orbit

View from above orbital plane
View from above orbital plane
View from above satellite
View from above satellite

Ground track
Ground track

The orbit data is extracted from the following two-line orbital elements,

1 25397U 98043D   15090.44752360  .00000137  00000-0  78811-4 0  9996
2 25397 098.5117 043.3612 0001474 142.6146 330.9309 14.23529742868736
Epoch (UTC): 31 March 2015 10:44:26
Eccentricity: 0.0001474
inclination: 98.5117°
perigee height: 812 km
apogee height: 814 km
right ascension of ascending node: 43.3612°
argument of perigee: 142.6146°
revolutions per day: 14.23529742
mean anomaly at epoch: 330.9309°
orbit number at epoch: 86873

The dashed part of the orbit path shows where the satellite is in the earth's shadow,  

DLR